Dewpoint
17 17 19 19 21 21 22 23 23 23 20 18 18 21 27 29 29 30 33 35 39 41 43 44 46 50 53 55 57 59 60 61 60 58 57 58 59 61 61 62 64 64 64 64
16 15 17 20 19 18 18 20 21 21 19 20 21 22 27 30 30 29 32 35 37 39 41 45 49 51 54 56 57 59 60 61 60 59 60 60 61 62 62 63 64 64 64 65
14 13 14 17 19 18 18 17 18 18 19 23 25 23 23 23 31 31 31 35 39 40 42 46 48 51 54 55 57 58 60 61 61 61 61 62 63 62 61 62 63 63 63 63
12 12 12 13 16 19 19 20 18 17 19 17 24 19 25 26 26 28 30 36 37 38 43 48 49 52 54 55 57 59 60 61 61 62 61 62 60 60 61 62 62 63 62 62
12 10 12 12 14 20 19 20 22 22 22 23 22 23 22 28 26 26 27 33 38 38 42 48 49 52 53 55 57 59 61 61 62 62 62 61 62 61 62 62 62 63 63 62
14 12 11 13 17 22 23 22 24 27 24 22 22 23 20 22 24 25 31 33 37 43 47 49 51 52 54 55 57 59 60 61 61 61 62 63 62 61 60 61 61 61 62 63
14 11 10 11 15 21 25 25 19 20 20 20 23 22 24 26 25 27 29 33 40 47 48 49 50 50 53 55 57 58 59 59 60 60 61 62 61 61 60 60 61 61 61 62
16 12 10 13 14 19 25 24 17 17 19 16 24 19 21 28 28 30 32 36 41 48 48 49 49 51 53 55 57 57 58 58 59 60 61 61 62 59 59 60 61 61 61 61
20 16 15 13 15 24 25 22 23 20 25 20 24 27 32 32 32 34 34 38 44 48 49 49 50 52 53 55 57 58 58 58 59 59 61 61 62 60 60 62 62 61 62 61
27 20 17 11 13 15 20 23 20 19 16 15 18 24 23 28 30 32 37 40 45 49 49 48 49 52 53 55 57 58 57 57 58 57 60 60 61 60 61 61 61 61 62 62
30 25 19 12 14 11 16 21 21 21 18 14 12 14 33 33 32 34 36 41 45 48 48 48 49 51 52 55 55 57 56 56 55 57 60 61 61 61 61 61 61 61 62 62
32 32 21 15 14 15 15 19 22 14 20 17 19 15 31 35 34 35 36 41 45 48 48 48 48 50 52 53 55 55 56 55 54 57 58 60 62 62 61 61 61 61 61 61
36 30 20 19 19 17 16 17 21 24 26 20 12 16 31 37 34 34 38 41 45 48 48 48 48 49 50 52 53 52 55 55 53 56 57 61 62 62 62 61 61 61 62 62
37 28 28 16 19 21 17 16 17 21 17 17 17 14 21 25 33 35 40 43 45 48 49 48 48 49 50 51 51 51 52 54 54 54 57 61 62 61 61 61 62 61 62 61
35 28 27 26 25 26 20 15 15 17 17 17 19 17 19 24 30 34 40 44 45 46 48 48 48 49 50 51 51 50 50 53 54 55 58 60 61 61 60 61 61 62 62 61
34 28 27 22 23 24 23 23 17 15 16 17 17 20 23 26 29 37 41 43 44 45 46 48 48 49 50 50 49 50 52 53 54 56 57 59 60 59 60 61 61 62 61 62
33 30 26 21 24 24 22 22 22 19 18 17 14 20 21 24 31 36 41 43 43 46 47 48 49 50 50 50 50 50 52 53 53 55 57 58 59 58 59 60 61 61 62 62
29 30 28 23 27 19 25 34 24 23 25 28 21 21 30 31 34 27 36 42 44 46 48 49 49 51 52 50 50 50 52 52 51 53 56 57 57 57 59 60 60 61 62 62
31 34 29 25 26 26 33 34 34 31 31 37 37 37 38 40 41 35 40 42 45 49 49 50 50 52 52 51 50 50 50 51 50 51 55 56 57 57 59 59 60 61 61 61
35 36 31 28 27 20 33 34 36 39 31 36 37 38 39 39 26 25 44 45 45 48 50 50 51 52 52 52 52 51 50 50 50 49 53 55 56 58 58 60 59 60 61 60
35 35 31 29 29 33 36 33 35 33 30 38 38 39 39 39 41 44 44 45 47 48 50 51 51 51 53 53 52 50 50 50 50 49 52 55 57 60 59 61 59 59 59 59
33 32 32 30 27 31 38 32 32 35 38 38 38 39 40 41 42 43 44 47 47 47 48 50 50 51 53 52 52 50 51 51 50 50 50 54 58 57 58 60 59 58 60 59
33 36 35 35 36 40 38 37 37 38 37 37 38 39 41 42 43 44 45 47 47 47 48 48 49 51 52 52 52 51 52 51 50 51 52 54 57 57 58 59 59 55 59 57
36 38 37 36 37 37 37 35 37 37 37 38 37 39 41 42 44 45 48 49 47 46 48 48 49 49 50 51 51 52 51 50 50 52 53 53 55 57 57 57 56 53 54 53
36 36 35 37 38 37 34 38 37 38 36 35 36 37 40 42 44 46 51 51 45 46 47 49 49 50 49 50 50 51 50 49 51 53 53 53 52 57 57 57 56 54 56 52
37 35 34 34 36 37 36 37 38 39 36 36 35 37 40 42 44 49 52 53 50 45 47 48 49 50 48 49 49 50 49 50 53 52 51 50 49 53 55 56 55 42 46 46
Lifted_Index
7 6 5 6 6 5 4 3 3 3 3 2 2 2 3 3 3 3 3 3 3 2 2 2 2 2 1 1 1 1 0 -0 -1 -0 -0 -1 -1 -1 -1 -1 -1 -2 -2 -2
6 5 6 6 6 5 4 3 3 3 3 2 2 2 3 3 3 3 4 3 3 2 2 2 2 2 1 1 1 1 0 -0 -1 -1 -0 -1 -1 -1 -1 -1 -1 -1 -2 -2
5 5 6 6 5 4 4 3 3 3 3 2 2 3 3 4 4 4 4 3 2 2 2 3 3 2 2 2 1 1 0 -0 -0 -0 -0 -1 -1 -1 -1 -1 -1 -1 -1 -2
5 6 6 5 5 4 4 4 4 3 3 3 3 4 4 4 4 4 3 3 2 2 3 3 3 3 3 2 2 1 1 0 -0 -0 -0 -1 -1 -1 -1 -1 -1 -1 -1 -1
6 7 7 6 5 5 4 4 4 4 3 3 4 5 5 4 3 3 3 2 2 3 3 3 3 3 3 3 2 1 1 0 0 -0 -0 -1 -1 -1 -1 -0 -1 -1 -1 -1
7 7 7 6 6 6 5 5 4 3 3 4 5 5 4 4 3 3 3 3 3 3 3 3 3 3 3 2 2 1 1 0 0 0 -0 -1 -1 -1 -0 -0 -1 -1 -1 -1
7 7 7 7 7 6 6 5 3 2 2 3 4 4 3 3 3 3 3 3 3 3 3 3 3 3 3 2 2 1 1 1 1 0 -0 -1 -1 -0 0 -0 -0 -1 -1 -1
5 6 7 8 7 6 6 5 3 2 1 2 3 3 2 2 3 3 3 3 3 3 3 4 4 3 3 2 1 1 1 1 1 0 -0 -0 -0 0 0 0 -0 -1 -1 -1
5 5 6 7 7 6 6 5 4 3 2 2 2 2 2 2 3 3 2 2 2 3 3 4 4 3 3 2 1 1 1 1 0 0 -0 -0 -0 0 0 0 -0 -0 -1 -1
5 6 6 6 7 6 6 5 5 4 2 1 1 2 2 2 2 2 2 2 2 3 3 3 3 3 2 2 1 1 1 1 1 0 -0 -0 -0 -0 0 0 0 -0 -1 -1
5 5 5 6 6 6 6 6 5 4 3 1 1 1 2 2 2 2 2 2 2 3 3 3 3 3 3 2 1 1 2 1 1 1 0 -0 -1 -0 0 0 0 -0 -0 -1
4 4 5 5 6 6 6 5 5 4 3 2 1 2 3 3 2 2 2 2 3 3 3 3 3 3 3 2 2 2 2 2 2 1 0 -0 -1 -1 -0 0 0 -0 -0 -1
4 4 4 4 5 6 6 6 6 5 4 3 2 2 2 2 2 2 2 2 3 2 2 3 3 3 3 2 2 2 2 2 2 1 0 -1 -1 -1 -0 0 0 -0 -0 -1
5 4 4 4 5 6 6 6 6 6 5 3 2 2 2 2 2 2 2 3 2 2 2 2 3 3 3 3 3 3 3 2 2 2 0 -1 -1 -1 -0 0 0 -0 -1 -1
5 5 5 5 5 6 6 7 7 6 6 4 3 2 2 2 2 2 3 3 2 2 2 2 3 3 3 3 3 3 3 3 2 1 0 -0 -1 -0 -0 -0 -0 -0 -1 -1
5 5 5 5 6 6 6 6 7 7 6 5 4 3 3 3 3 3 3 2 2 1 2 2 3 3 3 3 4 4 3 3 2 1 0 -0 -0 -0 -0 -0 -1 -1 -1 -1
5 5 4 4 5 5 5 6 6 6 6 6 4 3 3 3 3 3 2 2 1 1 1 2 2 3 3 3 4 4 3 3 3 2 1 0 0 0 -0 -1 -1 -1 -1 -1
5 5 4 4 4 4 5 6 6 6 6 6 5 5 4 4 3 3 2 1 1 1 1 2 2 3 3 3 4 4 3 3 3 2 1 0 0 0 -0 -1 -1 -1 -1 -1
5 4 3 3 3 3 4 5 5 5 6 6 6 6 5 4 3 3 2 1 1 0 1 1 2 3 3 3 4 4 3 3 3 2 1 0 0 0 -0 -1 -1 -0 -0 -0
4 4 3 3 3 3 4 4 5 5 6 6 6 5 5 5 4 3 3 2 1 0 1 1 2 2 3 3 3 3 3 3 3 2 1 1 -0 -0 -1 -1 -0 0 -0 -0
2 3 3 3 3 3 3 4 4 5 6 7 6 5 5 5 4 4 3 2 1 1 1 1 2 2 3 3 3 3 3 3 3 3 2 1 -0 -1 -1 -0 0 1 0 0
2 2 2 3 3 3 3 4 5 6 7 7 6 5 5 5 4 4 4 3 2 1 1 1 1 2 3 3 3 3 3 3 3 3 2 1 0 -0 -0 0 1 1 1 1
2 3 3 3 3 4 5 6 6 7 7 7 6 5 4 4 4 4 4 4 3 2 1 1 1 2 3 3 3 3 3 3 3 3 3 2 1 0 0 0 1 1 1 1
3 3 3 3 3 4 6 7 7 7 7 6 6 5 4 3 3 3 4 3 3 3 2 1 1 1 2 3 3 3 3 3 3 3 3 2 1 1 0 0 1 1 2 2
4 4 3 3 3 4 6 7 7 6 6 6 5 4 3 3 3 3 3 3 3 3 3 2 1 1 2 3 3 3 3 3 3 3 3 3 2 1 1 1 1 1 2 2
5 4 3 3 4 5 6 7 6 6 6 6 5 4 3 2 2 2 2 3 3 3 3 2 2 1 2 3 3 3 3 3 3 3 3 3 3 2 1 0 1 1 1 2